Location: Unspecified
(50.1700°N, 6.8600°E)
Time: 11:44:16
(UTC+00:00)

Cosmos 2285 Rocket - Pass Details

Date: 24 January 2019
Orbit: 970 x 1000 km, 74.0° (Epoch: 17 October)

Event Time Altitude Azimuth Distance (km) Brightness Sun altitude
Rises 06:40:44 0° 204° (SSW) 3,654 7.0 -6.1°
Reaches altitude 10° 06:43:15 10° 205° (SSW) 2,709 6.3 -5.7°
Maximum altitude 06:49:32 84° 293° (WNW) 982 4.0 -4.8°
Drops below altitude 10° 06:55:53 10° 23° (NNE) 2,728 6.3 -3.9°
Sets 06:58:26 0° 25° (NNE) 3,681 7.0 -3.5°
